owner,sensor,date,latitude,longitude,vertical_datum,wind_speed,wind_to_direction,wind_speed_of_gust,qcFlag 
DISL,ioos:station:DISL:KATA:1,2015-02-01T00:00:00Z,30.2583,-88.2131,0.0,6.25,93.0,-9999.0,'1111122,1111122,1111122' 
DISL,ioos:station:DISL:KATA:1,2015-02-01T00:30:00Z,30.2583,-88.2131,0.0,6.07,88.4,-9999.0,'1111122,1111122,1111122' 
DISL,ioos:station:DISL:KATA:1,2015-02-01T01:00:00Z,30.2583,-88.2131,0.0,5.85,92.4,-9999.0,'1111122,1111122,1111122' 
DISL,ioos:station:DISL:KATA:1,2015-02-01T01:30:00Z,30.2583,-88.2131,0.0,5.84,99.0,-9999.0,'1111122,1111122,1111122' 
DISL,ioos:station:DISL:KATA:1,2015-02-01T02:00:00Z,30.2583,-88.2131,0.0,7.72,107.2,-9999.0,'1111122,1111122,1111122' 
DISL,ioos:station:DISL:KATA:1,2015-02-01T02:30:00Z,30.2583,-88.2131,0.0,8.26,113.9,-9999.0,'1111122,1111122,1111122' 
DISL,ioos:station:DISL:KATA:1,2015-02-01T03:00:00Z,30.2583,-88.2131,0.0,8.08,111.3,-9999.0,'1111122,1111122,1111122' 
DISL,ioos:station:DISL:KATA:1,2015-02-01T03:30:00Z,30.2583,-88.2131,0.0,8.33,119.9,-9999.0,'1111122,1111122,1111122' 
DISL,ioos:station:DISL:KATA:1,2015-02-01T04:00:00Z,30.2583,-88.2131,0.0,7.7,122.4,-9999.0,'1111122,1111122,1111122' 
DISL,ioos:station:DISL:KATA:1,2015-02-01T04:30:00Z,30.2583,-88.2131,0.0,7.37,129.6,-9999.0,'1111122,1111122,1111122' 
DISL,ioos:station:DISL:KATA:1,2015-02-01T05:00:00Z,30.2583,-88.2131,0.0,6.22,130.6,-9999.0,'1111122,1111122,1111122' 
DISL,ioos:station:DISL:KATA:1,2015-02-01T05:30:00Z,30.2583,-88.2131,0.0,5.86,140.7,-9999.0,'1111122,1111122,1111122' 
DISL,ioos:station:DISL:KATA:1,2015-02-01T06:00:00Z,30.2583,-88.2131,0.0,5.12,157.7,-9999.0,'1111122,1111122,1111122' 
DISL,ioos:station:DISL:KATA:1,2015-02-01T06:30:00Z,30.2583,-88.2131,0.0,5.27,154.0,-9999.0,'1111122,1111122,1111122' 
DISL,ioos:station:DISL:KATA:1,2015-02-01T07:00:00Z,30.2583,-88.2131,0.0,5.07,144.6,-9999.0,'1111122,1111122,1111122' 
DISL,ioos:station:DISL:KATA:1,2015-02-01T07:30:00Z,30.2583,-88.2131,0.0,4.91,141.3,-9999.0,'1111122,1111122,1111122' 
DISL,ioos:station:DISL:KATA:1,2015-02-01T08:00:00Z,30.2583,-88.2131,0.0,4.98,128.5,-9999.0,'1111122,1111122,1111122' 
DISL,ioos:station:DISL:KATA:1,2015-02-01T08:30:00Z,30.2583,-88.2131,0.0,5.71,126.6,-9999.0,'1111122,1111122,1111122' 
DISL,ioos:station:DISL:KATA:1,2015-02-01T09:00:00Z,30.2583,-88.2131,0.0,5.97,125.2,-9999.0,'1111122,1111122,1111122' 
DISL,ioos:station:DISL:KATA:1,2015-02-01T09:30:00Z,30.2583,-88.2131,0.0,5.91,128.9,-9999.0,'1111122,1111122,1111122' 
DISL,ioos:station:DISL:KATA:1,2015-02-01T10:00:00Z,30.2583,-88.2131,0.0,6.99,133.7,-9999.0,'1111122,1111122,1111122' 
DISL,ioos:station:DISL:KATA:1,2015-02-01T10:30:00Z,30.2583,-88.2131,0.0,6.86,134.8,-9999.0,'1111122,1111122,1111122' 
DISL,ioos:station:DISL:KATA:1,2015-02-01T11:00:00Z,30.2583,-88.2131,0.0,5.62,152.7,-9999.0,'1111122,1111122,1111122' 
DISL,ioos:station:DISL:KATA:1,2015-02-01T11:30:00Z,30.2583,-88.2131,0.0,6.93,142.9,-9999.0,'1111122,1111122,1111122' 
DISL,ioos:station:DISL:KATA:1,2015-02-01T12:00:00Z,30.2583,-88.2131,0.0,6.79,141.9,-9999.0,'1111122,1111122,1111122' 
DISL,ioos:station:DISL:KATA:1,2015-02-01T12:30:00Z,30.2583,-88.2131,0.0,5.86,147.3,-9999.0,'1111122,1111122,1111122' 
DISL,ioos:station:DISL:KATA:1,2015-02-01T13:00:00Z,30.2583,-88.2131,0.0,5.15,137.9,-9999.0,'1111122,1111122,1111122' 
DISL,ioos:station:DISL:KATA:1,2015-02-01T13:30:00Z,30.2583,-88.2131,0.0,5.5,150.0,-9999.0,'1111122,1111122,1111122' 
DISL,ioos:station:DISL:KATA:1,2015-02-01T14:00:00Z,30.2583,-88.2131,0.0,6.01,146.1,-9999.0,'1111122,1111122,1111122' 
DISL,ioos:station:DISL:KATA:1,2015-02-01T14:30:00Z,30.2583,-88.2131,0.0,6.99,150.7,-9999.0,'1111122,1111122,1111122' 
DISL,ioos:station:DISL:KATA:1,2015-02-01T15:00:00Z,30.2583,-88.2131,0.0,5.97,141.1,-9999.0,'1111122,1111122,1111122' 
DISL,ioos:station:DISL:KATA:1,2015-02-01T15:30:00Z,30.2583,-88.2131,0.0,6.18,146.5,-9999.0,'1111122,1111122,1111122' 
DISL,ioos:station:DISL:KATA:1,2015-02-01T16:00:00Z,30.2583,-88.2131,0.0,5.45,153.4,-9999.0,'1111122,1111122,1111122' 
DISL,ioos:station:DISL:KATA:1,2015-02-01T16:30:00Z,30.2583,-88.2131,0.0,5.02,146.7,-9999.0,'1111122,1111122,1111122' 
DISL,ioos:station:DISL:KATA:1,2015-02-01T17:00:00Z,30.2583,-88.2131,0.0,5.36,169.4,-9999.0,'1111122,1111122,1111122' 
DISL,ioos:station:DISL:KATA:1,2015-02-01T17:30:00Z,30.2583,-88.2131,0.0,5.56,174.2,-9999.0,'1111122,1111122,1111122' 
DISL,ioos:station:DISL:KATA:1,2015-02-01T18:00:00Z,30.2583,-88.2131,0.0,6.87,174.7,-9999.0,'1111122,1111122,1111122' 
DISL,ioos:station:DISL:KATA:1,2015-02-01T18:30:00Z,30.2583,-88.2131,0.0,5.78,192.9,-9999.0,'1111122,1111122,1111122' 
DISL,ioos:station:DISL:KATA:1,2015-02-01T19:00:00Z,30.2583,-88.2131,0.0,5.8,203.0,-9999.0,'1111122,1111122,1111122' 
DISL,ioos:station:DISL:KATA:1,2015-02-01T19:30:00Z,30.2583,-88.2131,0.0,5.31,204.3,-9999.0,'1111122,1111122,1111122' 
DISL,ioos:station:DISL:KATA:1,2015-02-01T20:00:00Z,30.2583,-88.2131,0.0,5.84,204.8,-9999.0,'1111122,1111122,1111122' 
DISL,ioos:station:DISL:KATA:1,2015-02-01T20:30:00Z,30.2583,-88.2131,0.0,4.47,247.9,-9999.0,'1111122,1111122,1111122' 
DISL,ioos:station:DISL:KATA:1,2015-02-01T21:00:00Z,30.2583,-88.2131,0.0,4.96,209.6,-9999.0,'1111122,1111122,1111122' 
DISL,ioos:station:DISL:KATA:1,2015-02-01T21:30:00Z,30.2583,-88.2131,0.0,5.03,217.7,-9999.0,'1111122,1111122,1111122' 
DISL,ioos:station:DISL:KATA:1,2015-02-01T22:00:00Z,30.2583,-88.2131,0.0,4.36,218.7,-9999.0,'1111122,1111122,1111122' 
DISL,ioos:station:DISL:KATA:1,2015-02-01T22:30:00Z,30.2583,-88.2131,0.0,4.24,203.9,-9999.0,'1111122,1111122,1111122' 
DISL,ioos:station:DISL:KATA:1,2015-02-01T23:00:00Z,30.2583,-88.2131,0.0,5.32,207.3,-9999.0,'1111122,1111122,1111122' 
DISL,ioos:station:DISL:KATA:1,2015-02-01T23:30:00Z,30.2583,-88.2131,0.0,5.31,196.9,-9999.0,'1111122,1111122,1111122' 
DISL,ioos:station:DISL:KATA:1,2015-02-02T00:00:00Z,30.2583,-88.2131,0.0,5.35,208.9,-9999.0,'1111122,1111122,1111122' 
DISL,ioos:station:DISL:KATA:1,2015-02-02T00:30:00Z,30.2583,-88.2131,0.0,6.04,220.4,-9999.0,'1111122,1111122,1111122' 
DISL,ioos:station:DISL:KATA:1,2015-02-02T01:00:00Z,30.2583,-88.2131,0.0,5.91,221.7,-9999.0,'1111122,1111122,1111122' 
DISL,ioos:station:DISL:KATA:1,2015-02-02T01:30:00Z,30.2583,-88.2131,0.0,6.44,212.8,-9999.0,'1111122,1111122,1111122' 
DISL,ioos:station:DISL:KATA:1,2015-02-02T02:00:00Z,30.2583,-88.2131,0.0,5.82,218.5,-9999.0,'1111122,1111122,1111122' 
DISL,ioos:station:DISL:KATA:1,2015-02-02T02:30:00Z,30.2583,-88.2131,0.0,6.1,217.7,-9999.0,'1111122,1111122,1111122' 
DISL,ioos:station:DISL:KATA:1,2015-02-02T03:00:00Z,30.2583,-88.2131,0.0,6.81,223.2,-9999.0,'1111122,1111122,1111122' 
DISL,ioos:station:DISL:KATA:1,2015-02-02T03:30:00Z,30.2583,-88.2131,0.0,7.23,222.1,-9999.0,'1111122,1111122,1111122' 
DISL,ioos:station:DISL:KATA:1,2015-02-02T04:00:00Z,30.2583,-88.2131,0.0,7.76,227.5,-9999.0,'1111122,1111122,1111122' 
DISL,ioos:station:DISL:KATA:1,2015-02-02T04:30:00Z,30.2583,-88.2131,0.0,6.53,243.8,-9999.0,'1111122,1111122,1111122' 
DISL,ioos:station:DISL:KATA:1,2015-02-02T05:00:00Z,30.2583,-88.2131,0.0,9.22,245.6,-9999.0,'1111122,1111122,1111122' 
DISL,ioos:station:DISL:KATA:1,2015-02-02T05:30:00Z,30.2583,-88.2131,0.0,8.49,244.2,-9999.0,'1111122,1111122,1111122' 
DISL,ioos:station:DISL:KATA:1,2015-02-02T06:00:00Z,30.2583,-88.2131,0.0,8.96,250.4,-9999.0,'1111122,1111122,1111122' 
DISL,ioos:station:DISL:KATA:1,2015-02-02T06:30:00Z,30.2583,-88.2131,0.0,10.58,317.0,-9999.0,'1111122,1111122,1111122' 
DISL,ioos:station:DISL:KATA:1,2015-02-02T07:00:00Z,30.2583,-88.2131,0.0,8.29,321.7,-9999.0,'1111122,1111122,1111122' 
DISL,ioos:station:DISL:KATA:1,2015-02-02T07:30:00Z,30.2583,-88.2131,0.0,7.59,324.6,-9999.0,'1111122,1111122,1111122' 
DISL,ioos:station:DISL:KATA:1,2015-02-02T08:00:00Z,30.2583,-88.2131,0.0,8.77,317.7,-9999.0,'1111122,1111122,1111122' 
DISL,ioos:station:DISL:KATA:1,2015-02-02T08:30:00Z,30.2583,-88.2131,0.0,9.74,313.9,-9999.0,'1111122,1111122,1111122' 
DISL,ioos:station:DISL:KATA:1,2015-02-02T09:00:00Z,30.2583,-88.2131,0.0,9.42,322.2,-9999.0,'1111122,1111122,1111122' 
DISL,ioos:station:DISL:KATA:1,2015-02-02T09:30:00Z,30.2583,-88.2131,0.0,6.61,325.4,-9999.0,'1111122,1111122,1111122' 
DISL,ioos:station:DISL:KATA:1,2015-02-02T10:00:00Z,30.2583,-88.2131,0.0,8.95,327.6,-9999.0,'1111122,1111122,1111122' 
DISL,ioos:station:DISL:KATA:1,2015-02-02T10:30:00Z,30.2583,-88.2131,0.0,8.03,344.1,-9999.0,'1111122,1111122,1111122' 
DISL,ioos:station:DISL:KATA:1,2015-02-02T11:00:00Z,30.2583,-88.2131,0.0,9.55,343.4,-9999.0,'1111122,1111122,1111122' 
DISL,ioos:station:DISL:KATA:1,2015-02-02T11:30:00Z,30.2583,-88.2131,0.0,12.91,328.6,-9999.0,'1111122,1111122,1111122' 
DISL,ioos:station:DISL:KATA:1,2015-02-02T12:00:00Z,30.2583,-88.2131,0.0,14.39,321.5,-9999.0,'1111122,1111122,1111122' 
DISL,ioos:station:DISL:KATA:1,2015-02-02T12:30:00Z,30.2583,-88.2131,0.0,12.88,333.7,-9999.0,'1111122,1111122,1111122' 
DISL,ioos:station:DISL:KATA:1,2015-02-02T13:00:00Z,30.2583,-88.2131,0.0,14.0,337.5,-9999.0,'1111122,1111122,1111122' 
DISL,ioos:station:DISL:KATA:1,2015-02-02T13:30:00Z,30.2583,-88.2131,0.0,11.85,333.7,-9999.0,'1111122,1111122,1111122' 
DISL,ioos:station:DISL:KATA:1,2015-02-02T14:00:00Z,30.2583,-88.2131,0.0,11.18,338.1,-9999.0,'1111122,1111122,1111122' 
DISL,ioos:station:DISL:KATA:1,2015-02-02T14:30:00Z,30.2583,-88.2131,0.0,10.38,340.1,-9999.0,'1111122,1111122,1111122' 
DISL,ioos:station:DISL:KATA:1,2015-02-02T15:00:00Z,30.2583,-88.2131,0.0,9.5,337.3,-9999.0,'1111122,1111122,1111122' 
DISL,ioos:station:DISL:KATA:1,2015-02-02T15:30:00Z,30.2583,-88.2131,0.0,11.82,338.8,-9999.0,'1111122,1111122,1111122' 
DISL,ioos:station:DISL:KATA:1,2015-02-02T16:00:00Z,30.2583,-88.2131,0.0,11.28,346.6,-9999.0,'1111122,1111122,1111122' 
DISL,ioos:station:DISL:KATA:1,2015-02-02T16:30:00Z,30.2583,-88.2131,0.0,9.74,339.0,-9999.0,'1111122,1111122,1111122' 
DISL,ioos:station:DISL:KATA:1,2015-02-02T17:00:00Z,30.2583,-88.2131,0.0,9.37,357.7,-9999.0,'1111122,1111122,1111122' 
DISL,ioos:station:DISL:KATA:1,2015-02-02T17:30:00Z,30.2583,-88.2131,0.0,10.25,349.5,-9999.0,'1111122,1111122,1111122' 
DISL,ioos:station:DISL:KATA:1,2015-02-02T18:00:00Z,30.2583,-88.2131,0.0,8.19,349.6,-9999.0,'1111122,1111122,1111122' 
DISL,ioos:station:DISL:KATA:1,2015-02-02T18:30:00Z,30.2583,-88.2131,0.0,9.87,352.1,-9999.0,'1111122,1111122,1111122' 
DISL,ioos:station:DISL:KATA:1,2015-02-02T19:00:00Z,30.2583,-88.2131,0.0,7.29,351.3,-9999.0,'1111122,1111122,1111122' 
DISL,ioos:station:DISL:KATA:1,2015-02-02T19:30:00Z,30.2583,-88.2131,0.0,8.75,7.314,-9999.0,'1111122,1111122,1111122' 
DISL,ioos:station:DISL:KATA:1,2015-02-02T20:00:00Z,30.2583,-88.2131,0.0,7.66,357.1,-9999.0,'1111122,1111122,1111122' 
DISL,ioos:station:DISL:KATA:1,2015-02-02T20:30:00Z,30.2583,-88.2131,0.0,6.86,4.732,-9999.0,'1111122,1111122,1111122' 
DISL,ioos:station:DISL:KATA:1,2015-02-02T21:00:00Z,30.2583,-88.2131,0.0,6.62,4.194,-9999.0,'1111122,1111122,1111122' 
DISL,ioos:station:DISL:KATA:1,2015-02-02T21:30:00Z,30.2583,-88.2131,0.0,5.23,4.79,-9999.0,'1111122,1111122,1111122' 
DISL,ioos:station:DISL:KATA:1,2015-02-02T22:00:00Z,30.2583,-88.2131,0.0,5.55,13.59,-9999.0,'1111122,1111122,1111122' 
DISL,ioos:station:DISL:KATA:1,2015-02-02T22:30:00Z,30.2583,-88.2131,0.0,5.73,19.99,-9999.0,'1111122,1111122,1111122' 
DISL,ioos:station:DISL:KATA:1,2015-02-02T23:00:00Z,30.2583,-88.2131,0.0,5.98,19.28,-9999.0,'1111122,1111122,1111122' 
DISL,ioos:station:DISL:KATA:1,2015-02-02T23:30:00Z,30.2583,-88.2131,0.0,7.14,33.6,-9999.0,'1111122,1111122,1111122' 
DISL,ioos:station:DISL:KATA:1,2015-02-03T00:00:00Z,30.2583,-88.2131,0.0,7.15,27.58,-9999.0,'1111122,1111122,1111122' 
DISL,ioos:station:DISL:KATA:1,2015-02-03T00:30:00Z,30.2583,-88.2131,0.0,6.98,32.38,-9999.0,'1111122,1111122,1111122' 
DISL,ioos:station:DISL:KATA:1,2015-02-03T01:00:00Z,30.2583,-88.2131,0.0,7.71,28.21,-9999.0,'1111122,1111122,1111122' 
DISL,ioos:station:DISL:KATA:1,2015-02-03T01:30:00Z,30.2583,-88.2131,0.0,8.59,26.93,-9999.0,'1111122,1111122,1111122' 
DISL,ioos:station:DISL:KATA:1,2015-02-03T02:00:00Z,30.2583,-88.2131,0.0,8.67,28.01,-9999.0,'1111122,1111122,1111122' 
DISL,ioos:station:DISL:KATA:1,2015-02-03T02:30:00Z,30.2583,-88.2131,0.0,8.74,26.11,-9999.0,'1111122,1111122,1111122' 
DISL,ioos:station:DISL:KATA:1,2015-02-03T03:00:00Z,30.2583,-88.2131,0.0,9.19,23.86,-9999.0,'1111122,1111122,1111122' 
DISL,ioos:station:DISL:KATA:1,2015-02-03T03:30:00Z,30.2583,-88.2131,0.0,8.53,24.69,-9999.0,'1111122,1111122,1111122' 
DISL,ioos:station:DISL:KATA:1,2015-02-03T04:00:00Z,30.2583,-88.2131,0.0,9.13,25.3,-9999.0,'1111122,1111122,1111122' 
DISL,ioos:station:DISL:KATA:1,2015-02-03T04:30:00Z,30.2583,-88.2131,0.0,9.35,18.68,-9999.0,'1111122,1111122,1111122' 
DISL,ioos:station:DISL:KATA:1,2015-02-03T05:00:00Z,30.2583,-88.2131,0.0,9.64,25.66,-9999.0,'1111122,1111122,1111122' 
DISL,ioos:station:DISL:KATA:1,2015-02-03T05:30:00Z,30.2583,-88.2131,0.0,9.0,27.55,-9999.0,'1111122,1111122,1111122' 
DISL,ioos:station:DISL:KATA:1,2015-02-03T06:00:00Z,30.2583,-88.2131,0.0,9.72,26.14,-9999.0,'1111122,1111122,1111122' 
DISL,ioos:station:DISL:KATA:1,2015-02-03T06:30:00Z,30.2583,-88.2131,0.0,10.36,27.97,-9999.0,'1111122,1111122,1111122' 
DISL,ioos:station:DISL:KATA:1,2015-02-03T07:00:00Z,30.2583,-88.2131,0.0,10.65,27.35,-9999.0,'1111122,1111122,1111122' 
DISL,ioos:station:DISL:KATA:1,2015-02-03T07:30:00Z,30.2583,-88.2131,0.0,9.47,23.04,-9999.0,'1111122,1111122,1111122' 
DISL,ioos:station:DISL:KATA:1,2015-02-03T08:00:00Z,30.2583,-88.2131,0.0,9.67,27.47,-9999.0,'1111122,1111122,1111122' 
DISL,ioos:station:DISL:KATA:1,2015-02-03T08:30:00Z,30.2583,-88.2131,0.0,9.35,31.71,-9999.0,'1111122,1111122,1111122' 
DISL,ioos:station:DISL:KATA:1,2015-02-03T09:00:00Z,30.2583,-88.2131,0.0,8.98,27.06,-9999.0,'1111122,1111122,1111122' 
DISL,ioos:station:DISL:KATA:1,2015-02-03T09:30:00Z,30.2583,-88.2131,0.0,7.21,30.61,-9999.0,'1111122,1111122,1111122' 
DISL,ioos:station:DISL:KATA:1,2015-02-03T10:00:00Z,30.2583,-88.2131,0.0,6.74,24.01,-9999.0,'1111122,1111122,1111122' 
DISL,ioos:station:DISL:KATA:1,2015-02-03T10:30:00Z,30.2583,-88.2131,0.0,6.97,40.79,-9999.0,'1111122,1111122,1111122' 
DISL,ioos:station:DISL:KATA:1,2015-02-03T11:00:00Z,30.2583,-88.2131,0.0,10.22,43.48,-9999.0,'1111122,1111122,1111122' 
DISL,ioos:station:DISL:KATA:1,2015-02-03T11:30:00Z,30.2583,-88.2131,0.0,10.23,48.36,-9999.0,'1111122,1111122,1111122' 
DISL,ioos:station:DISL:KATA:1,2015-02-03T12:00:00Z,30.2583,-88.2131,0.0,10.28,48.74,-9999.0,'1111122,1111122,1111122' 
DISL,ioos:station:DISL:KATA:1,2015-02-03T12:30:00Z,30.2583,-88.2131,0.0,10.08,51.5,-9999.0,'1111122,1111122,1111122' 
DISL,ioos:station:DISL:KATA:1,2015-02-03T13:00:00Z,30.2583,-88.2131,0.0,9.33,57.64,-9999.0,'1111122,1111122,1111122' 
DISL,ioos:station:DISL:KATA:1,2015-02-03T13:30:00Z,30.2583,-88.2131,0.0,8.57,63.19,-9999.0,'1111122,1111122,1111122' 
DISL,ioos:station:DISL:KATA:1,2015-02-03T14:00:00Z,30.2583,-88.2131,0.0,8.6,60.42,-9999.0,'1111122,1111122,1111122' 
DISL,ioos:station:DISL:KATA:1,2015-02-03T14:30:00Z,30.2583,-88.2131,0.0,7.87,65.38,-9999.0,'1111122,1111122,1111122' 
DISL,ioos:station:DISL:KATA:1,2015-02-03T15:00:00Z,30.2583,-88.2131,0.0,6.83,74.99,-9999.0,'1111122,1111122,1111122' 
DISL,ioos:station:DISL:KATA:1,2015-02-03T15:30:00Z,30.2583,-88.2131,0.0,5.6,67.58,-9999.0,'1111122,1111122,1111122' 
DISL,ioos:station:DISL:KATA:1,2015-02-03T16:00:00Z,30.2583,-88.2131,0.0,6.08,60.66,-9999.0,'1111122,1111122,1111122' 
DISL,ioos:station:DISL:KATA:1,2015-02-03T16:30:00Z,30.2583,-88.2131,0.0,5.3,68.58,-9999.0,'1111122,1111122,1111122' 
DISL,ioos:station:DISL:KATA:1,2015-02-03T17:00:00Z,30.2583,-88.2131,0.0,5.14,71.91,-9999.0,'1111122,1111122,1111122' 
DISL,ioos:station:DISL:KATA:1,2015-02-03T17:30:00Z,30.2583,-88.2131,0.0,4.74,65.05,-9999.0,'1111122,1111122,1111122' 
DISL,ioos:station:DISL:KATA:1,2015-02-03T18:00:00Z,30.2583,-88.2131,0.0,4.97,66.2,-9999.0,'1111122,1111122,1111122' 
DISL,ioos:station:DISL:KATA:1,2015-02-03T18:30:00Z,30.2583,-88.2131,0.0,4.87,61.45,-9999.0,'1111122,1111122,1111122' 
DISL,ioos:station:DISL:KATA:1,2015-02-03T19:00:00Z,30.2583,-88.2131,0.0,4.95,50.09,-9999.0,'1111122,1111122,1111122' 
DISL,ioos:station:DISL:KATA:1,2015-02-03T19:30:00Z,30.2583,-88.2131,0.0,4.35,53.43,-9999.0,'1111122,1111122,1111122' 
DISL,ioos:station:DISL:KATA:1,2015-02-03T20:00:00Z,30.2583,-88.2131,0.0,3.96,60.53,-9999.0,'1111122,1111122,1111122' 
DISL,ioos:station:DISL:KATA:1,2015-02-03T20:30:00Z,30.2583,-88.2131,0.0,3.33,60.9,-9999.0,'1111122,1111122,1111122' 
DISL,ioos:station:DISL:KATA:1,2015-02-03T21:00:00Z,30.2583,-88.2131,0.0,3.84,70.78,-9999.0,'1111122,1111122,1111122' 
DISL,ioos:station:DISL:KATA:1,2015-02-03T21:30:00Z,30.2583,-88.2131,0.0,4.19,81.8,-9999.0,'1111122,1111122,1111122' 
DISL,ioos:station:DISL:KATA:1,2015-02-03T22:00:00Z,30.2583,-88.2131,0.0,3.22,76.49,-9999.0,'1111122,1111122,1111122' 
DISL,ioos:station:DISL:KATA:1,2015-02-03T22:30:00Z,30.2583,-88.2131,0.0,3.7,61.48,-9999.0,'1111122,1111122,1111122' 
DISL,ioos:station:DISL:KATA:1,2015-02-03T23:00:00Z,30.2583,-88.2131,0.0,3.7,62.4,-9999.0,'1111122,1111122,1111122' 
DISL,ioos:station:DISL:KATA:1,2015-02-03T23:30:00Z,30.2583,-88.2131,0.0,3.15,57.62,-9999.0,'1111122,1111122,1111122' 
DISL,ioos:station:DISL:KATA:1,2015-02-04T00:00:00Z,30.2583,-88.2131,0.0,3.02,56.91,-9999.0,'1111122,1111122,1111122' 
DISL,ioos:station:DISL:KATA:1,2015-02-04T00:30:00Z,30.2583,-88.2131,0.0,2.52,28.7,-9999.0,'1111122,1111122,1111122' 
DISL,ioos:station:DISL:KATA:1,2015-02-04T01:00:00Z,30.2583,-88.2131,0.0,2.2,39.2,-9999.0,'1111122,1111122,1111122' 
DISL,ioos:station:DISL:KATA:1,2015-02-04T01:30:00Z,30.2583,-88.2131,0.0,3.11,29.27,-9999.0,'1111122,1111122,1111122' 
DISL,ioos:station:DISL:KATA:1,2015-02-04T02:00:00Z,30.2583,-88.2131,0.0,3.61,32.38,-9999.0,'1111122,1111122,1111122' 
DISL,ioos:station:DISL:KATA:1,2015-02-04T02:30:00Z,30.2583,-88.2131,0.0,3.49,22.8,-9999.0,'1111122,1111122,1111122' 
DISL,ioos:station:DISL:KATA:1,2015-02-04T03:00:00Z,30.2583,-88.2131,0.0,4.38,11.34,-9999.0,'1111122,1111122,1111122' 
DISL,ioos:station:DISL:KATA:1,2015-02-04T03:30:00Z,30.2583,-88.2131,0.0,4.59,19.21,-9999.0,'1111122,1111122,1111122' 
DISL,ioos:station:DISL:KATA:1,2015-02-04T04:00:00Z,30.2583,-88.2131,0.0,4.58,27.46,-9999.0,'1111122,1111122,1111122' 
DISL,ioos:station:DISL:KATA:1,2015-02-04T04:30:00Z,30.2583,-88.2131,0.0,4.31,41.44,-9999.0,'1111122,1111122,1111122' 
DISL,ioos:station:DISL:KATA:1,2015-02-04T05:00:00Z,30.2583,-88.2131,0.0,3.81,51.01,-9999.0,'1111122,1111122,1111122' 
DISL,ioos:station:DISL:KATA:1,2015-02-04T05:30:00Z,30.2583,-88.2131,0.0,4.48,86.3,-9999.0,'1111122,1111122,1111122' 
DISL,ioos:station:DISL:KATA:1,2015-02-04T06:00:00Z,30.2583,-88.2131,0.0,4.3,86.7,-9999.0,'1111122,1111122,1111122' 
DISL,ioos:station:DISL:KATA:1,2015-02-04T06:30:00Z,30.2583,-88.2131,0.0,5.15,85.0,-9999.0,'1111122,1111122,1111122' 
DISL,ioos:station:DISL:KATA:1,2015-02-04T07:00:00Z,30.2583,-88.2131,0.0,6.27,101.6,-9999.0,'1111122,1111122,1111122' 
DISL,ioos:station:DISL:KATA:1,2015-02-04T07:30:00Z,30.2583,-88.2131,0.0,5.37,95.1,-9999.0,'1111122,1111122,1111122' 
DISL,ioos:station:DISL:KATA:1,2015-02-04T08:00:00Z,30.2583,-88.2131,0.0,3.94,76.35,-9999.0,'1111122,1111122,1111122' 
DISL,ioos:station:DISL:KATA:1,2015-02-04T08:30:00Z,30.2583,-88.2131,0.0,3.51,79.22,-9999.0,'1111122,1111122,1111122' 
DISL,ioos:station:DISL:KATA:1,2015-02-04T09:00:00Z,30.2583,-88.2131,0.0,3.52,44.78,-9999.0,'1111122,1111122,1111122' 
DISL,ioos:station:DISL:KATA:1,2015-02-04T09:30:00Z,30.2583,-88.2131,0.0,4.51,8.37,-9999.0,'1111122,1111122,1111122' 
DISL,ioos:station:DISL:KATA:1,2015-02-04T10:00:00Z,30.2583,-88.2131,0.0,4.57,33.46,-9999.0,'1111122,1111122,1111122' 
DISL,ioos:station:DISL:KATA:1,2015-02-04T10:30:00Z,30.2583,-88.2131,0.0,5.57,68.05,-9999.0,'1111122,1111122,1111122' 
DISL,ioos:station:DISL:KATA:1,2015-02-04T11:00:00Z,30.2583,-88.2131,0.0,5.41,77.29,-9999.0,'1111122,1111122,1111122' 
DISL,ioos:station:DISL:KATA:1,2015-02-04T11:30:00Z,30.2583,-88.2131,0.0,5.12,81.9,-9999.0,'1111122,1111122,1111122' 
DISL,ioos:station:DISL:KATA:1,2015-02-04T12:00:00Z,30.2583,-88.2131,0.0,4.87,82.0,-9999.0,'1111122,1111122,1111122' 
DISL,ioos:station:DISL:KATA:1,2015-02-04T12:30:00Z,30.2583,-88.2131,0.0,4.95,70.45,-9999.0,'1111122,1111122,1111122' 
DISL,ioos:station:DISL:KATA:1,2015-02-04T13:00:00Z,30.2583,-88.2131,0.0,4.82,73.75,-9999.0,'1111122,1111122,1111122' 
DISL,ioos:station:DISL:KATA:1,2015-02-04T13:30:00Z,30.2583,-88.2131,0.0,5.27,63.82,-9999.0,'1111122,1111122,1111122' 
DISL,ioos:station:DISL:KATA:1,2015-02-04T14:00:00Z,30.2583,-88.2131,0.0,6.04,67.35,-9999.0,'1111122,1111122,1111122' 
DISL,ioos:station:DISL:KATA:1,2015-02-04T14:30:00Z,30.2583,-88.2131,0.0,6.97,61.36,-9999.0,'1111122,1111122,1111122' 
DISL,ioos:station:DISL:KATA:1,2015-02-04T15:00:00Z,30.2583,-88.2131,0.0,7.33,55.0,-9999.0,'1111122,1111122,1111122' 
DISL,ioos:station:DISL:KATA:1,2015-02-04T15:30:00Z,30.2583,-88.2131,0.0,6.77,55.61,-9999.0,'1111122,1111122,1111122' 
DISL,ioos:station:DISL:KATA:1,2015-02-04T16:00:00Z,30.2583,-88.2131,0.0,7.2,56.3,-9999.0,'1111122,1111122,1111122' 
DISL,ioos:station:DISL:KATA:1,2015-02-04T16:30:00Z,30.2583,-88.2131,0.0,7.25,60.03,-9999.0,'1111122,1111122,1111122' 
DISL,ioos:station:DISL:KATA:1,2015-02-04T17:00:00Z,30.2583,-88.2131,0.0,7.15,65.02,-9999.0,'1111122,1111122,1111122' 
DISL,ioos:station:DISL:KATA:1,2015-02-04T17:30:00Z,30.2583,-88.2131,0.0,7.44,48.47,-9999.0,'1111122,1111122,1111122' 
DISL,ioos:station:DISL:KATA:1,2015-02-04T18:00:00Z,30.2583,-88.2131,0.0,6.9,33.81,-9999.0,'1111122,1111122,1111122' 
DISL,ioos:station:DISL:KATA:1,2015-02-04T18:30:00Z,30.2583,-88.2131,0.0,7.73,34.17,-9999.0,'1111122,1111122,1111122' 
DISL,ioos:station:DISL:KATA:1,2015-02-04T19:00:00Z,30.2583,-88.2131,0.0,8.04,37.7,-9999.0,'1111122,1111122,1111122' 
DISL,ioos:station:DISL:KATA:1,2015-02-04T19:30:00Z,30.2583,-88.2131,0.0,7.22,40.0,-9999.0,'1111122,1111122,1111122' 
DISL,ioos:station:DISL:KATA:1,2015-02-04T20:00:00Z,30.2583,-88.2131,0.0,7.27,45.71,-9999.0,'1111122,1111122,1111122' 
DISL,ioos:station:DISL:KATA:1,2015-02-04T20:30:00Z,30.2583,-88.2131,0.0,7.25,43.98,-9999.0,'1111122,1111122,1111122' 
DISL,ioos:station:DISL:KATA:1,2015-02-04T21:00:00Z,30.2583,-88.2131,0.0,6.35,38.66,-9999.0,'1111122,1111122,1111122' 
DISL,ioos:station:DISL:KATA:1,2015-02-04T21:30:00Z,30.2583,-88.2131,0.0,6.3,49.29,-9999.0,'1111122,1111122,1111122' 
DISL,ioos:station:DISL:KATA:1,2015-02-04T22:00:00Z,30.2583,-88.2131,0.0,7.68,64.98,-9999.0,'1111122,1111122,1111122' 
DISL,ioos:station:DISL:KATA:1,2015-02-04T22:30:00Z,30.2583,-88.2131,0.0,7.36,67.24,-9999.0,'1111122,1111122,1111122' 
DISL,ioos:station:DISL:KATA:1,2015-02-04T23:00:00Z,30.2583,-88.2131,0.0,9.34,67.41,-9999.0,'1111122,1111122,1111122' 
DISL,ioos:station:DISL:KATA:1,2015-02-04T23:30:00Z,30.2583,-88.2131,0.0,10.05,40.26,-9999.0,'1111122,1111122,1111122' 
DISL,ioos:station:DISL:KATA:1,2015-02-05T00:00:00Z,30.2583,-88.2131,0.0,9.42,40.46,-9999.0,'1111122,1111122,1111122' 
DISL,ioos:station:DISL:KATA:1,2015-02-05T00:30:00Z,30.2583,-88.2131,0.0,10.04,59.41,-9999.0,'1111122,1111122,1111122' 
DISL,ioos:station:DISL:KATA:1,2015-02-05T01:00:00Z,30.2583,-88.2131,0.0,10.28,47.29,-9999.0,'1111122,1111122,1111122' 
DISL,ioos:station:DISL:KATA:1,2015-02-05T01:30:00Z,30.2583,-88.2131,0.0,11.49,66.56,-9999.0,'1111122,1111122,1111122' 
DISL,ioos:station:DISL:KATA:1,2015-02-05T02:00:00Z,30.2583,-88.2131,0.0,11.01,67.68,-9999.0,'1111122,1111122,1111122' 
DISL,ioos:station:DISL:KATA:1,2015-02-05T02:30:00Z,30.2583,-88.2131,0.0,8.89,39.71,-9999.0,'1111122,1111122,1111122' 
DISL,ioos:station:DISL:KATA:1,2015-02-05T03:00:00Z,30.2583,-88.2131,0.0,6.19,346.1,-9999.0,'1111122,1111122,1111122' 
DISL,ioos:station:DISL:KATA:1,2015-02-05T03:30:00Z,30.2583,-88.2131,0.0,6.86,355.7,-9999.0,'1111122,1111122,1111122' 
DISL,ioos:station:DISL:KATA:1,2015-02-05T04:00:00Z,30.2583,-88.2131,0.0,7.71,1.259,-9999.0,'1111122,1111122,1111122' 
DISL,ioos:station:DISL:KATA:1,2015-02-05T04:30:00Z,30.2583,-88.2131,0.0,7.79,5.631,-9999.0,'1111122,1111122,1111122' 